EHI
10 5 2 1 0 0 0 0 0 0 0 1 0 0 0 0 0 0 1 4 7 8 8 11 12 11 11 10 9 8 6 5 4 4 3 3 5 5 6 8 8 4 1 0 0 0 0 1 1
5 4 3 2 0 0 0 0 0 0 0 1 0 0 0 0 0 1 2 5 8 8 8 10 13 13 12 10 9 8 6 3 2 1 1 2 4 6 5 5 5 3 1 1 1 1 1 2 2
2 4 5 2 0 0 0 0 0 0 0 0 0 0 0 1 1 2 4 6 8 8 8 10 14 14 12 11 10 9 5 2 0 0 1 1 2 5 6 5 4 3 2 2 2 2 2 3 4
4 7 6 2 0 0 0 0 1 0 0 0 0 0 0 1 2 4 6 7 7 6 6 9 13 14 12 11 12 10 5 1 0 1 2 2 1 3 6 6 5 4 3 3 3 2 2 3 4
9 10 7 2 1 0 0 1 2 1 0 0 0 0 0 2 4 6 8 8 6 5 6 9 12 14 13 12 12 10 5 1 1 2 4 3 2 3 4 5 5 3 2 2 2 1 1 2 2
14 11 6 2 0 0 0 1 2 1 0 0 0 0 1 3 5 7 8 8 7 6 6 8 10 12 13 12 10 9 5 3 2 2 3 3 3 4 3 3 3 1 1 1 1 1 2 2 1
14 9 4 1 0 0 0 0 0 0 0 0 0 0 1 3 6 7 8 8 7 6 6 6 7 8 9 10 10 9 7 5 4 3 2 3 3 3 1 1 1 0 0 0 0 1 2 2 1
11 6 3 2 1 0 0 1 1 1 1 0 0 0 1 3 6 8 9 8 7 6 6 5 5 5 4 5 7 7 6 5 4 4 4 3 3 1 0 0 0 0 0 0 0 0 1 1 1
8 6 4 3 2 0 0 1 2 3 3 1 1 1 2 4 6 9 10 9 8 6 4 3 3 3 3 2 2 2 2 3 3 3 3 2 1 0 0 0 1 1 1 1 1 2 2 2 2
7 6 4 3 1 0 0 1 3 5 4 3 3 4 6 6 6 7 10 10 8 5 3 1 1 2 2 1 0 1 1 1 2 1 1 1 0 0 0 0 1 2 2 3 3 3 3 2 1
6 5 3 1 0 0 0 0 2 4 4 4 4 7 9 9 7 6 7 8 7 5 3 1 1 1 1 1 0 1 2 2 2 1 0 0 0 0 0 0 1 1 2 2 2 2 1 1 0
4 3 1 1 0 0 0 0 1 2 3 4 6 9 12 12 9 6 5 5 6 6 4 3 3 2 1 0 0 1 2 3 3 2 0 0 0 0 0 0 0 0 1 1 0 0 0 0 0
1 1 1 1 0 0 0 1 1 3 4 5 7 11 14 13 10 7 4 4 5 6 5 4 5 5 4 2 1 1 1 1 2 2 1 1 0 0 0 0 0 0 0 0 0 0 0 0 0
0 0 0 0 0 0 1 1 1 4 6 7 9 11 13 12 10 8 6 5 6 6 6 6 7 7 6 5 3 2 1 1 1 1 2 1 0 0 0 0 0 0 0 0 0 0 0 0 0
0 0 0 0 0 0 0 0 2 5 7 8 11 12 12 10 9 9 8 7 7 7 7 7 7 6 6 6 5 4 2 1 1 1 1 1 0 0 0 0 0 0 0 0 0 0 0 0 0
0 0 0 0 0 0 0 0 2 6 9 10 13 14 13 10 9 10 9 8 8 9 8 7 7 6 6 6 6 4 3 2 2 2 1 0 0 0 0 0 0 0 0 0 0 0 0 0 0
0 0 0 0 0 0 0 1 2 5 8 11 14 16 14 12 12 13 12 10 11 12 10 8 7 6 6 6 6 4 3 2 3 4 3 1 0 0 0 0 0 0 0 0 0 0 0 0 0
0 0 0 0 0 0 1 2 3 4 6 10 14 16 16 15 15 16 16 15 14 13 12 9 7 6 7 7 7 5 3 2 3 4 3 2 1 1 0 0 0 0 0 0 0 0 0 0 0
0 0 0 0 0 1 2 3 3 4 6 9 12 15 16 15 15 18 20 19 17 15 13 10 8 7 7 7 7 6 4 2 3 3 3 3 3 2 1 1 1 0 0 0 0 0 0 0 0
0 0 0 0 0 1 2 2 3 5 7 9 12 13 13 13 14 18 22 24 22 19 16 14 12 9 8 7 7 4 2 2 2 3 3 3 4 4 3 2 1 0 0 0 0 0 0 0 0
0 0 0 0 0 0 1 1 3 6 8 9 11 11 12 13 15 18 24 30 30 26 24 22 19 15 11 9 6 4 3 2 2 2 4 5 6 6 4 2 1 0 0 0 0 0 0 0 0
0 1 1 1 0 0 0 0 2 7 11 11 11 11 13 15 17 21 27 33 36 34 30 27 24 21 16 11 8 7 7 6 3 2 4 6 8 7 4 1 0 0 0 0 0 0 0 1 1
1 1 2 1 0 0 0 0 1 6 12 14 14 14 13 14 17 23 28 32 35 36 33 30 27 24 19 15 12 10 9 8 6 4 4 4 6 6 4 1 1 1 1 1 1 1 0 1 2
0 1 1 0 0 0 0 0 1 4 10 15 17 17 13 12 16 21 26 28 31 35 35 33 30 26 22 19 16 13 10 10 9 8 6 5 5 6 5 4 3 2 2 2 1 1 0 1 1
0 0 0 0 0 0 0 0 1 2 6 12 16 17 14 13 16 22 26 28 32 38 39 36 32 30 28 24 20 17 15 12 11 11 10 9 8 8 9 8 6 5 4 3 2 1 1 1 1
0 0 0 0 0 0 0 1 1 2 3 7 11 15 16 16 19 24 29 30 35 40 42 39 36 35 34 31 26 22 20 16 12 10 11 11 11 11 11 11 11 11 9 6 4 4 3 3 3
0 0 0 0 0 0 0 1 2 2 2 4 7 11 16 19 21 26 31 32 33 37 41 42 41 39 37 36 32 26 23 19 13 9 10 10 10 11 12 13 14 15 15 12 9 7 5 5 5
0 0 0 0 0 0 0 1 1 2 3 5 7 10 15 19 20 24 30 31 31 33 37 40 41 39 37 36 34 30 24 19 14 11 10 10 9 8 10 13 15 17 18 18 14 11 9 8 6
0 0 0 0 0 0 0 0 1 2 4 6 7 10 14 17 18 20 26 29 29 30 33 36 37 37 37 36 34 32 28 22 17 14 13 13 11 8 8 12 15 17 18 19 17 14 11 9 8
0 0 0 0 0 0 0 0 1 2 5 6 7 10 14 16 17 18 22 27 28 28 30 34 36 37 39 38 34 34 32 27 21 17 16 17 14 10 9 12 14 15 17 19 18 14 11 9 8
Wind_Speed
10 7 4 1 1 1 1 2 5 6 6 7 10 10 9 6 4 4 1 5 6 6 6 11 14 14 15 16 16 15 15 16 17 17 18 18 18 18 18 18 18 17 17 16 15 14 14 14 13
8 7 3 0 2 2 1 4 8 9 10 10 11 10 8 7 6 6 3 5 7 7 6 9 15 15 15 15 16 16 16 16 17 17 17 18 18 18 18 18 17 17 16 15 14 14 13 13 13
8 5 1 1 0 2 2 5 11 11 9 7 7 6 6 5 6 4 4 8 7 6 6 9 15 15 15 16 15 15 16 16 17 17 17 18 18 17 17 17 17 16 16 15 14 13 12 12 12
3 1 1 1 2 3 5 6 12 11 8 8 8 7 5 4 5 6 9 10 9 6 6 10 15 15 15 16 16 15 16 16 16 16 17 18 18 17 17 17 16 16 15 14 13 12 11 11 11
1 2 3 2 1 1 5 10 10 9 6 8 10 8 5 4 10 11 10 10 9 7 6 9 14 15 15 15 16 16 16 16 16 16 16 17 17 17 16 16 15 15 14 13 11 10 10 10 10
2 3 2 1 2 1 4 9 13 13 12 10 10 8 4 6 10 10 10 9 8 8 7 7 13 15 15 15 15 15 16 16 16 16 16 16 16 16 16 15 15 14 14 12 11 10 9 9 8
2 2 1 2 2 2 5 7 10 11 10 8 8 7 4 6 9 10 10 9 8 8 7 5 6 9 13 14 14 14 15 15 15 15 16 16 16 16 15 15 14 14 13 12 10 9 8 8 7
3 2 1 1 4 2 4 5 8 11 9 9 7 8 7 8 10 10 10 9 8 6 5 5 4 4 5 7 12 14 14 15 15 15 15 15 15 15 15 14 14 14 13 12 10 9 7 7 6
2 2 2 3 3 3 5 8 6 7 9 6 5 7 11 14 14 12 10 8 7 6 4 4 4 4 4 5 9 11 13 13 13 12 14 12 7 7 9 13 14 14 13 12 10 9 7 5 4
4 3 7 6 5 5 6 9 8 7 9 8 10 11 14 14 14 13 11 9 8 6 4 3 4 4 4 5 4 4 5 6 5 5 6 5 5 5 7 11 14 13 12 11 10 8 6 3 1
6 7 4 3 6 7 6 6 6 11 7 10 15 16 15 14 12 12 11 10 9 7 6 4 4 4 4 3 3 2 3 4 4 5 5 5 4 4 4 3 6 6 8 5 5 4 2 2 1
3 4 3 3 4 8 7 6 6 6 9 13 15 16 15 14 12 12 11 10 8 7 6 5 5 4 4 3 3 3 3 3 3 4 5 5 3 3 3 3 3 3 2 3 3 2 2 2 2
1 1 2 3 3 6 8 8 8 7 12 13 14 14 15 14 12 11 10 9 9 8 6 5 5 5 4 4 3 4 4 4 4 4 4 5 4 4 4 3 3 3 3 3 3 3 3 2 2
2 1 0 3 4 5 9 7 7 9 13 14 14 12 13 14 13 11 10 9 9 8 7 5 5 5 5 4 3 4 4 4 4 4 5 5 4 4 4 4 3 3 3 3 3 3 3 2 2
2 2 1 2 3 4 8 4 5 12 13 13 13 13 12 12 12 12 12 11 10 8 7 6 6 5 5 5 4 4 4 4 4 4 5 6 5 5 5 4 4 3 3 4 3 2 1 2 2
4 3 1 4 2 3 7 4 6 12 14 12 12 13 12 11 12 12 12 10 9 8 7 7 7 6 5 4 4 4 4 4 4 4 4 5 6 6 5 4 4 4 3 3 3 2 2 1 1
4 2 4 5 1 2 5 5 7 10 13 13 11 12 12 10 11 11 13 12 10 9 8 7 6 6 6 5 4 3 3 4 4 4 4 5 6 6 5 4 3 4 3 3 3 3 3 2 1
5 4 5 5 3 1 2 4 8 9 10 11 11 10 10 11 11 12 12 12 10 9 8 7 7 6 5 4 3 2 3 3 4 5 5 6 5 5 5 4 4 4 3 3 3 3 2 2 2
6 5 5 7 4 2 3 5 9 9 8 8 9 10 10 11 9 10 12 12 10 9 8 8 7 6 5 3 3 3 3 3 3 4 6 6 6 6 5 4 4 4 4 4 4 3 2 2 1
5 5 5 6 2 1 2 3 6 10 11 11 11 10 12 10 9 10 10 11 11 11 10 8 8 7 6 4 3 3 3 3 3 4 5 6 6 6 6 5 4 5 4 4 4 3 2 2 2
6 5 5 3 3 2 3 2 2 4 6 7 9 10 11 13 14 13 12 11 11 11 11 10 8 7 6 5 3 2 2 2 2 3 3 5 6 6 5 6 5 5 5 4 5 5 4 3 2
7 7 5 4 1 3 2 1 5 4 5 8 10 10 11 12 11 12 13 12 12 12 10 9 8 7 6 6 5 5 5 4 4 4 3 4 5 6 6 6 6 5 4 5 5 4 4 4 3
8 6 4 3 2 1 1 3 5 1 5 9 10 11 11 12 13 13 14 13 12 11 10 9 8 7 6 6 6 5 4 4 3 3 4 4 4 5 6 6 5 5 5 5 5 4 4 4 4
3 3 5 5 5 1 4 4 4 4 8 8 9 10 10 10 12 11 11 10 9 9 8 8 8 8 7 7 6 6 6 5 4 4 4 4 3 4 5 6 5 5 5 6 6 5 5 4 4
2 6 4 5 4 5 3 3 6 7 6 8 9 10 9 7 9 10 10 10 10 10 10 9 9 8 8 8 7 6 6 6 6 5 5 4 4 4 5 6 5 5 5 6 5 5 5 5 5
2 9 7 4 4 4 3 1 5 3 3 4 6 7 7 6 7 9 10 11 11 11 10 10 10 9 9 9 8 6 6 5 4 4 4 4 4 5 5 6 6 6 6 6 5 5 6 5 6
2 2 8 7 2 0 2 3 4 2 2 3 3 4 5 7 7 9 10 10 9 10 9 10 10 9 9 9 8 6 6 5 5 5 4 3 3 4 4 5 5 5 6 6 5 4 5 5 5
5 5 5 5 3 1 3 3 3 2 2 2 3 4 4 5 6 7 8 8 7 7 7 7 7 8 8 8 8 7 7 6 5 5 5 4 4 4 4 4 5 5 5 5 5 4 4 4 4
2 2 4 4 5 6 3 5 4 7 6 5 4 5 6 6 6 7 6 6 6 6 6 6 6 6 6 7 7 6 6 6 5 5 5 5 4 4 4 4 4 4 5 4 4 4 4 4 4
3 3 5 4 2 4 4 6 3 4 3 3 3 4 4 5 6 7 7 6 5 5 6 6 5 5 6 7 6 6 5 5 5 6 6 5 5 5 5 4 4 5 4 4 4 5 4 5 5
Wind_Direction
166 161 158 184 297 31 66 107 114 94 66 64 75 81 81 70 91 130 186 140 132 145 151 144 139 135 131 129 129 129 128 127 127 127 127 127 127 128 129 130 131 131 131 132 131 129 128 127 127
161 167 179 157 52 56 58 118 102 107 126 114 84 82 76 68 80 108 119 138 135 137 140 142 139 137 134 131 130 132 131 131 130 130 131 131 130 130 131 131 130 131 132 132 132 132 131 130 130
176 184 173 55 144 158 129 121 112 111 116 105 91 69 69 85 102 124 144 139 128 123 129 138 136 138 135 133 133 134 133 133 133 134 134 134 134 134 134 133 132 132 132 133 133 134 135 134 132
161 119 40 41 245 201 158 137 121 112 87 80 97 75 63 78 114 132 134 131 125 119 123 133 134 138 137 138 138 138 137 137 137 137 137 138 139 138 138 135 134 134 133 133 134 137 139 139 136
93 82 29 339 334 129 137 126 119 110 96 94 97 98 82 70 109 126 131 130 125 120 124 133 134 137 139 141 141 140 140 141 142 142 142 142 142 142 142 139 138 138 137 138 138 140 143 144 141
90 80 61 23 52 67 116 117 109 104 113 112 106 106 101 123 127 133 131 127 126 125 121 127 133 140 142 142 143 142 143 143 144 145 145 146 146 145 145 144 144 144 144 144 142 143 145 147 146
125 108 196 147 110 93 120 121 117 126 129 130 125 106 119 138 140 134 129 124 120 122 124 125 133 139 144 145 144 145 147 148 148 148 149 151 151 151 151 149 149 150 150 150 149 145 147 152 155
163 95 322 141 117 124 127 104 118 122 120 133 128 129 150 156 140 129 122 118 116 111 116 118 126 129 137 143 148 149 150 152 152 151 152 154 155 155 157 155 156 157 156 155 155 153 152 159 168
140 76 229 190 144 153 129 107 100 94 112 121 108 127 142 141 132 126 121 114 116 117 118 120 126 126 132 145 153 153 154 156 155 155 154 152 152 152 157 161 164 164 163 163 165 166 164 164 176
154 187 221 198 164 154 139 127 126 104 102 104 107 114 131 134 134 133 134 135 136 136 137 130 138 141 138 142 138 143 149 151 148 146 150 142 140 153 159 171 171 170 170 172 177 180 179 176 177
177 196 218 181 158 136 127 125 122 126 126 146 143 143 143 138 137 137 141 146 150 152 148 144 146 144 141 133 131 130 134 136 138 142 142 141 139 151 157 162 169 169 172 173 179 181 181 184 203
194 233 194 155 156 130 142 135 127 142 157 154 147 147 145 143 146 147 147 149 149 148 152 153 149 145 141 136 137 137 137 138 143 149 148 145 146 152 157 155 154 162 167 168 176 179 190 197 207
109 208 175 155 149 130 127 129 125 129 135 137 137 140 146 147 150 151 149 148 148 150 151 151 145 142 145 140 147 143 145 148 152 154 155 150 152 157 160 159 160 167 165 172 174 177 191 201 215
232 268 218 152 137 135 123 125 117 142 137 136 140 148 152 153 152 150 151 154 157 157 155 152 142 145 148 147 144 144 151 150 152 159 163 159 158 158 159 162 168 176 178 181 181 184 187 201 210
345 15 336 169 144 147 114 99 147 155 143 143 151 155 155 153 153 156 161 163 163 160 156 155 151 148 149 149 151 146 152 154 158 163 165 164 160 158 160 163 174 182 176 174 176 178 173 196 201
5 14 316 263 168 181 119 159 178 158 147 153 158 159 159 160 160 162 163 163 163 159 157 162 158 151 149 149 148 144 150 154 161 162 165 167 163 160 158 167 180 181 172 170 173 174 176 200 198
6 320 278 289 264 169 124 166 182 165 158 161 161 162 165 163 166 168 166 165 165 164 163 163 157 157 158 154 152 152 150 156 164 165 167 170 169 167 165 172 177 172 170 173 183 173 173 184 207
253 262 269 275 291 88 126 164 169 171 166 165 159 158 166 172 176 171 166 165 165 167 164 164 161 165 163 153 145 148 155 165 169 171 172 171 173 173 170 173 176 169 166 176 177 172 178 184 191
230 244 263 276 266 110 163 164 174 177 172 168 161 165 174 180 177 170 165 164 164 166 167 169 168 174 166 158 164 167 174 170 169 176 172 174 175 173 169 174 173 173 176 185 180 168 175 199 156
241 248 266 287 291 148 169 188 182 174 183 182 173 177 179 173 171 175 169 167 171 172 173 173 175 174 174 175 175 170 161 165 169 173 176 180 177 175 175 173 178 179 176 179 182 170 165 201 169
250 218 222 241 328 11 92 13 195 193 188 186 183 185 184 181 178 176 176 175 175 176 175 177 178 175 176 171 152 142 122 118 147 167 182 188 182 181 181 181 181 183 179 185 192 183 176 191 202
255 238 209 209 171 267 138 203 262 209 197 194 193 190 189 187 179 178 176 176 179 180 176 174 173 171 174 171 165 163 168 177 190 185 188 192 188 187 189 187 185 184 183 186 196 190 182 177 197
232 230 203 191 163 356 343 137 269 195 207 213 201 194 188 188 184 183 182 180 180 176 175 175 171 172 175 176 176 175 178 181 176 174 183 194 196 196 196 190 187 188 189 192 197 194 192 185 191
233 42 19 43 69 326 246 162 257 230 205 202 200 197 193 193 186 184 181 174 175 174 173 176 175 179 180 178 178 179 179 179 177 185 191 199 201 204 204 196 193 195 195 197 199 201 200 199 198
53 82 29 357 8 258 258 141 235 241 200 180 183 188 185 182 179 174 172 174 177 178 179 180 180 182 183 183 185 186 186 182 188 189 192 193 198 206 210 204 198 202 204 201 196 201 209 204 204
217 138 155 198 221 269 334 203 262 243 181 162 167 166 164 162 168 171 174 179 179 179 181 182 186 188 186 186 191 191 186 184 193 191 186 195 204 208 205 202 203 206 204 207 202 206 212 208 209
171 175 172 148 173 282 292 282 312 34 88 106 127 139 148 157 165 169 169 174 178 181 185 184 186 189 191 191 190 193 192 190 194 193 189 195 204 207 202 202 204 208 206 206 201 210 215 210 210
167 162 92 108 138 214 282 261 228 246 195 161 158 162 165 160 159 160 165 170 172 174 178 180 181 191 194 193 194 195 198 200 197 189 194 199 204 205 198 202 205 207 207 204 200 208 215 207 214
4 68 101 116 147 155 210 266 230 197 192 173 173 163 163 155 161 157 157 162 162 155 161 173 181 186 194 195 194 196 196 199 196 197 200 199 202 202 207 204 203 209 211 207 203 208 200 206 220
151 156 131 140 227 160 161 256 281 172 160 140 135 138 140 150 158 154 151 149 152 165 172 169 170 179 191 192 191 198 196 192 199 209 209 201 202 206 208 207 204 208 212 208 204 212 210 208 220